Regional Weather Roundup
Issued by NWS Jackson, KY

Home | Current Version | Previous Version | Text Only | Print | Product List | Glossary Off
Versions: 1 2 3 4 5 6 7 8 9 10 11 12 13 14 15 16 17 18 19 20 21 22 23 24 25 26 27 28 29 30 31 32 33 34 35 36 37 38 39 40 41 42 43 44 45 46 47 48 49 50

000
ASUS43 KJKL 212310
RWRJKL

EAST KENTUCKY HOURLY WEATHER ROUNDUP
NATIONAL WEATHER SERVICE JACKSON KY
700 PM EDT THU SEP 21 2017

NOTE: "FAIR" INDICATES FEW OR NO CLOUDS BELOW 12,000 FEET WITH
NO SIGNIFICANT WEATHER AND/OR OBSTRUCTIONS TO VISIBILITY.

* THESE REPORTS ARE NOT UNDER NWS QUALITY CONTROL AND MAY NOT
  REPORT WEATHER SUCH AS PRECIPITATION AND FOG.

KYZ079-080-083-085-087-088-110-112-115-119-120-220000
...EASTERN KENTUCKY...

CITY           SKY/WX    TMP DP  RH WIND       PRES   REMARKS
JACKSON        CLEAR     77  66  68 CALM      30.07F
LONDON         CLEAR     82  64  54 NE3       30.06S
SOMERSET*      CLEAR     79  64  61 CALM      30.05F
MONTICELLO*    CLEAR     81  68  64 W6        30.06F
WILLIAMSBURG*  CLEAR     81  66  61 E3        30.05F
MIDDLESBORO*   CLEAR     77  67  71 CALM      30.06F
HARLAN APT*    CLEAR     77  64  65 CALM      30.08S
PIKE CO APT*     N/A     78  66  67 CALM      30.08F
BIG SANDY APT* CLEAR     78  68  70 CALM      30.07F
MOREHEAD APT*  CLEAR     81  66  61 CALM      30.07F
$$

KYZ035-036-041-042-044-050-067-078-099-220000
...CENTRAL KENTUCKY...

CITY           SKY/WX    TMP DP  RH WIND       PRES   REMARKS
MT STERLING*   CLEAR     81  68  65 SE5       30.07S
FLEMING/MASON* CLEAR     80  68  65 SE3       30.06F
DANVILLE*      CLEAR     81  68  65 CALM      30.06S
LEXINGTON      CLEAR     84  65  52 E7        30.05S
FRANKFORT      CLEAR     85  67  54 E3        30.03S
LOUISVILLE     PTCLDY    88  67  49 CALM      30.01S HX  91
LEBANON*         N/A     82  68  61 CALM      30.04S
GLASGOW*       CLEAR     83  68  59 CALM      30.02S
BOWLING GREEN  CLEAR     87  67  51 NE5       30.01S HX  90
$$

KYZ091>093-OHZ055-061-077-WVZ005-015-034-035-042-220000
...SOUTHERN OHIO/WEST VIRGINIA...

CITY           SKY/WX    TMP DP  RH WIND       PRES   REMARKS
COVINGTON      MOCLDY    80  71  74 W6        30.05R THUNDER
COLUMBUS       PTCLDY    85  66  53 SE8       30.04S
DAYTON         TSTM      76  67  73 N10       30.06R
WILMINGTON     MOCLDY    78  71  79 CALM      30.05S
HUNTINGTON     CLEAR     83  65  54 CALM      30.04F
CHARLESTON     PTCLDY    81  66  60 CALM      30.05S
PINEVILLE*     CLEAR     72  66  80 MISG      30.14S
BECKLEY        CLEAR     75  62  64 N5        30.14S
BLUEFIELD      MOCLDY    74  60  61 N7        30.15F
LOGAN CO APT*    N/A     79  64  61 CALM      30.08F
$$

VAZ002-007-008-TNZ017-027-036-066-071-220000
...SOUTHWEST VIRGINIA/EAST TENNESSEE...

CITY           SKY/WX    TMP DP  RH WIND       PRES   REMARKS
WISE*          CLEAR     73  61  64 N6        30.15F
JONESVILLE*      N/A     79  68  69 CALM      30.09S
ABINGDON*      CLEAR     81  62  52 CALM      30.10S
BRISTOL        PTCLDY    81  63  54 CALM      30.06S
MORRISTOWN*    MOCLDY    81  63  54 NE8       30.04S
SEVIERVILLE*   CLEAR     82  61  47 SE3       30.02S
KNOXVILLE      PTCLDY    83  63  50 N6        30.02S
LAFOLLETTE*    CLEAR     77  70  78 CALM      30.08S
OAK RIDGE      CLEAR     83  66  56 CALM      30.05R
CROSSVILLE     CLEAR     79  63  57 NE6       30.10S
NASHVILLE      PTCLDY    77  72  84 SW3       30.02S
$$

...KEY TO REMARKS...
VSB - VISIBILITY IN MILES
WCI - WIND CHILL INDEX
HX  - HEAT INDEX

$$



USA.gov is the U.S. government's official web portal to all federal, state and local government web resources and services.